Location: Krakow
(50.0830°N, 19.9170°E)
Time: 20:58:30
(UTC+01:00)

ISS - Visible Passes

Search period start: 30 November 2022 00:00
Search period end: 10 December 2022 00:00
Orbit: 415 x 420 km, 51.6° (Epoch: 30 November)

Date Brightness Start Highest point End Pass type
(mag) Time Alt. Az. Time Alt. Az. Time Alt. Az.
30 Nov -3.8 17:04:03 10° WNW 17:07:24 70° N 17:09:13 25° E visible
30 Nov -1.1 18:40:54 10° WNW 18:42:09 20° W 18:42:09 20° W visible
01 Dec -3.7 16:16:01 10° W 16:19:21 65° N 16:22:42 10° E visible
01 Dec -3.6 17:52:52 10° WNW 17:56:11 65° SSW 17:56:13 65° SSW visible
02 Dec -3.8 17:04:50 10° WNW 17:08:12 85° SSW 17:10:22 20° ESE visible
02 Dec -1.0 18:41:55 10° W 18:43:20 18° WSW 18:43:20 18° WSW visible
03 Dec -3.8 16:16:49 10° WNW 16:20:11 79° NNE 16:23:32 10° E visible
03 Dec -2.3 17:53:43 10° W 17:56:48 34° SSW 17:57:38 29° S visible
04 Dec -2.9 17:05:38 10° WNW 17:08:53 48° SSW 17:12:07 10° SE visible
04 Dec -0.6 18:44:05 10° WSW 18:45:01 11° SW 18:45:06 11° SW visible
05 Dec -3.4 16:17:35 10° WNW 16:20:56 67° SSW 16:24:15 10° ESE visible
05 Dec -0.9 17:55:02 10° W 17:57:14 17° SW 17:59:26 10° S visible
06 Dec -1.4 17:06:38 10° W 17:09:25 24° SW 17:12:11 10° SSE visible
07 Dec -2.0 16:18:27 10° W 16:21:33 35° SSW 16:24:37 10° SE visible
08 Dec -0.3 17:08:40 10° WSW 17:09:46 11° SW 17:10:52 10° SSW visible
09 Dec -0.6 16:19:43 10° W 16:21:59 17° SW 16:24:15 10° S visible
